STARLINK-4557 (53432 NORAD) Tracking and Keplerian Element Data

This shows tracking and keplerian element data for the satellite.

Feedback or suggestion? Click here.




ElementValue
Catalog53432
NameSTARLINK-4557
Epoch Orbit1648
Epoch Day325.33334491
Epoch Year2022
RAAN110.4483
Inclination53.2171
Eccentricity0.0001206
Argument of Perigee79.785
Mean Anonmoly159.3531
Mean Motion15.08816829
Decay Rate0.00041586
L11 53432U 22097AW 22325.33334491 .00041586 00000+0 26173-2 0 9995
L22 53432 53.2171 110.4483 0001206 79.7850 159.3531 15.08816829 16488



Live tracking and technical data element details for STARLINK-4557 (NORAD 53432). STARLINK-4557 can be tracked NOW for your location showing map with azimuth and elevation plus other details from your city location.







IsCatalogInMostPopularTable: catalog: 53432, numindb: 6
Update: records affected: 1



GetName: 53432 STARLINK-4557

Hit Count: updated at: Thu, 08 Dec 2022 18:45:26 GMT